GFSFLT1_850_dewp_132.txt.gz
Dewpoint
-12 -8 -8 -6 -5 -4 -3 -3 2 6 9 10 9 8 8 11 9 9 9 13 13 13 12 12 12 13 12 12 12 11 10 9
-13 -10 -6 -5 -4 -4 -3 1 6 8 9 9 9 8 8 8 10 9 8 11 12 13 14 12 13 12 12 10 12 11 11 10
-13 -12 -3 -4 -3 -1 2 3 4 6 9 9 9 8 7 6 9 10 9 9 10 12 13 12 12 12 12 12 12 12 11 11
-11 -6 -1 -1 -2 -1 -1 -0 2 5 6 7 7 6 7 8 10 11 11 10 11 11 12 12 12 13 12 12 12 12 11 11
-5 -3 4 3 3 4 4 4 3 3 6 7 9 9 8 7 7 6 8 11 10 11 11 12 12 13 13 12 12 11 11 10
-2 0 -2 2 4 3 2 1 -1 -3 2 10 11 10 9 8 8 8 8 9 9 11 11 12 12 12 12 12 11 12 11 9
-4 -1 5 5 4 2 1 -3 -5 -5 7 9 9 8 10 11 11 10 10 10 11 10 10 11 12 12 12 12 11 11 11 10
1 4 4 4 2 1 -2 -7 -5 6 7 9 10 9 8 10 12 11 11 11 12 11 11 11 11 12 11 11 11 11 11 8
1 3 3 3 2 0 -2 -2 -2 6 7 8 8 8 9 10 10 12 11 10 10 9 10 11 11 11 11 11 11 11 9 10
3 3 2 1 0 1 1 -0 -1 -3 -1 1 4 6 6 9 9 10 11 11 10 10 10 10 10 10 11 11 11 10 10 10
2 2 1 1 2 2 2 1 0 1 -1 -1 -1 -0 4 6 8 9 10 11 11 11 12 11 10 10 10 11 10 10 10 9
-2 2 2 1 2 4 4 3 3 2 1 0 -1 -1 -1 5 7 8 9 10 12 11 11 10 10 10 11 10 10 10 10 10
4 1 4 5 5 5 5 4 4 4 2 0 -0 -1 -1 2 5 8 8 10 11 11 11 10 10 10 10 10 10 10 10 10
-2 3 5 5 5 5 4 4 2 0 -1 -1 -1 -1 -2 0 3 6 7 8 9 10 11 11 11 10 10 10 10 10 10 10
4 3 3 3 3 3 2 2 -0 -2 -3 -3 -2 -1 -2 -1 1 4 6 7 9 10 10 11 11 9 10 9 9 8 9 9
2 2 2 1 1 1 1 1 -0 -1 -3 -3 -4 -2 -1 -2 1 3 6 8 9 9 10 11 11 10 9 9 9 9 9 9
0 0 0 0 0 -0 -0 -1 -1 -1 -2 -2 -2 -2 -2 -1 -0 2 4 8 9 10 10 11 11 11 9 8 8 9 9 10
-1 -1 -2 -1 -1 -2 -1 -1 -1 -1 -1 -1 -1 -1 -2 -1 -0 2 3 6 8 9 10 10 11 10 9 8 9 9 10 9
-3 -3 -3 -3 -3 -3 -2 -2 -2 -2 -2 -1 -1 -0 -1 -0 0 2 3 6 8 9 10 10 10 9 8 8 10 10 10 9

GFSFLT1_850_dewp_135.txt.gz
Dewpoint
-10 -10 -10 -11 -10 -7 -4 -2 -1 2 6 9 10 11 12 12 12 11 11 10 9 9 9 10 10 11 12 12 12 12 11 10
-11 -11 -11 -11 -9 -7 -5 -4 -4 -2 3 9 9 10 11 10 9 8 10 10 10 12 11 12 11 11 11 11 12 12 12 11
-12 -12 -11 -11 -5 -5 -6 -4 -4 -3 1 7 8 8 9 8 7 7 9 10 9 11 11 12 12 13 12 12 11 12 12 11
-12 -12 -8 -9 -1 2 -2 -2 -1 4 8 8 10 10 9 9 8 7 9 11 10 11 11 11 12 12 11 10 11 11 11 11
-10 -11 -5 1 5 5 6 8 8 9 10 10 9 8 6 5 6 6 6 7 9 9 10 11 11 11 11 10 11 11 11 11
-10 -8 -3 4 5 6 6 6 5 6 5 4 4 7 8 8 8 8 8 8 9 10 10 10 11 11 12 12 11 12 12 10
-9 -3 0 6 4 4 3 2 2 3 5 5 2 7 10 11 10 9 9 9 9 9 9 8 9 10 11 12 12 12 11 11
-7 0 6 7 6 4 3 4 8 8 7 8 8 8 8 7 7 10 12 11 10 10 10 10 11 11 11 11 12 12 11 11
-6 -3 5 5 2 0 -2 -2 1 6 5 2 3 4 2 1 6 9 10 12 11 11 11 10 11 10 10 11 12 12 11 12
3 5 6 4 3 1 -1 -3 -4 -5 -4 -2 -2 -1 -0 3 6 9 9 10 11 11 10 9 9 10 11 11 11 11 11 11
6 7 7 5 4 3 1 -0 -0 -0 -1 -1 -2 -2 -2 -1 4 7 8 9 9 10 11 11 10 10 10 10 11 11 11 10
6 7 7 7 6 4 3 2 2 3 2 1 -1 -2 -1 0 4 5 6 8 9 9 9 11 11 11 10 10 11 11 10 10
5 5 6 5 5 4 4 4 2 0 -0 -1 -1 -2 -2 -2 -1 2 5 7 8 9 10 11 11 11 10 10 10 10 10 9
3 2 3 2 2 1 2 1 -1 -2 -3 -4 -5 -6 -5 -2 -2 -2 0 5 6 7 9 9 11 11 11 9 9 10 10 9
2 1 1 0 0 -0 -0 0 -0 -1 -2 -2 -3 -4 -5 -6 -3 -2 -1 1 6 6 7 9 10 11 11 11 9 9 9 9
0 0 -1 -1 -1 -1 -1 -1 -2 -2 -2 -1 -2 -3 -3 -3 -3 -2 -2 -0 1 7 8 9 9 10 11 11 10 9 9 10
-2 -1 -2 -2 -2 -2 -3 -3 -2 -3 -3 -3 -2 -2 -2 -2 -2 -2 -2 -1 0 5 8 9 9 9 10 11 11 10 8 9
-4 -4 -3 -3 -3 -3 -3 -3 -3 -4 -4 -4 -3 -2 -2 -2 -1 -2 -2 -2 1 3 6 8 9 9 10 10 11 10 9 8
-5 -5 -5 -5 -5 -4 -4 -4 -5 -5 -5 -4 -4 -3 -2 -1 -1 -1 -1 -1 1 3 6 7 8 9 10 8 10 10 8 8

GFSFLT1_850_dewp_138.txt.gz
Dewpoint
-13 -12 -11 -11 -11 -11 -10 -10 -9 -6 6 9 11 11 11 8 5 4 5 5 6 7 7 8 9 10 11 11 12 12 11 10
-13 -13 -11 -12 -13 -12 -11 -10 -8 -7 5 10 11 11 11 11 9 10 10 10 10 10 9 8 9 9 10 11 11 12 12 11
-11 -11 -11 -11 -12 -13 -11 -10 -6 -7 -3 8 11 11 10 10 11 10 8 6 4 6 9 10 11 11 11 11 11 12 12 12
-9 -11 -11 -12 -11 -11 -9 -8 -4 -5 4 10 6 13 9 9 8 8 8 8 7 8 8 10 9 11 12 12 11 9 10 10
-8 -8 -10 -11 -10 -6 -6 -4 -2 -0 8 11 3 6 7 6 8 6 10 8 8 10 10 9 10 10 12 11 10 10 10 10
-2 -5 -7 -7 2 2 3 0 6 7 6 7 6 7 2 6 9 8 8 9 9 9 9 10 9 9 10 11 11 12 10 10
-1 -4 -6 -4 8 9 11 10 10 10 10 9 7 9 7 7 3 4 6 7 8 9 9 9 10 9 10 11 10 11 12 11
4 -0 -2 3 9 8 8 8 8 6 3 3 8 5 6 8 8 9 10 9 9 9 9 10 9 9 10 9 10 10 11 12
5 5 -2 7 8 9 7 7 8 8 5 4 6 6 4 2 -0 -1 5 7 9 9 10 10 10 9 10 10 10 10 11 11
5 7 8 8 8 7 7 7 6 5 3 1 -1 1 -1 1 1 2 6 8 9 11 11 10 10 11 10 10 11 10 11 11
5 6 6 6 5 4 3 3 2 0 0 0 -2 -1 -1 -1 -1 3 5 8 8 9 10 11 10 10 10 10 10 11 11 12
1 1 1 2 4 3 2 1 1 1 1 -0 -1 -2 -2 -1 -0 1 3 5 7 8 8 9 10 10 10 10 10 10 10 10
0 -0 0 -1 -0 1 -0 -1 -1 -2 -3 -4 -5 -6 -5 -3 -2 -1 -0 1 4 7 8 9 9 10 10 10 11 10 10 11
-0 -1 -1 -1 -2 -1 -1 -1 -2 -1 -2 -3 -4 -5 -5 -6 -5 -3 -1 -1 0 4 7 8 9 10 11 11 11 10 10 11
-2 -2 -2 -3 -2 -0 -2 -2 -2 -2 -2 -2 -3 -3 -3 -3 -3 -3 -3 -2 -2 0 2 6 7 9 10 11 11 11 10 10
-3 -3 -3 -4 -4 -2 -2 -3 -4 -3 -3 -3 -3 -3 -2 -2 -2 -2 -2 -2 -2 -2 -0 2 6 9 10 10 10 11 10 9
-4 -5 -5 -5 -5 -5 -6 -6 -5 -5 -5 -4 -4 -3 -3 -3 -2 -1 -2 -2 -2 -2 -0 1 3 8 9 9 10 10 11 10
-5 -6 -6 -6 -6 -5 -5 -6 -6 -6 -5 -5 -4 -4 -4 -3 -3 -2 -2 -2 -2 -1 0 2 4 6 8 9 9 10 10 11
-6 -7 -7 -7 -7 -6 -6 -6 -6 -6 -5 -5 -5 -4 -4 -4 -3 -2 -1 -1 -2 -1 0 1 2 5 7 8 9 10 10 10

GFSFLT1_850_dewp_144.txt.gz
Dewpoint
-3 -2 -1 -1 -3 -3 -3 -5 -9 4 -7 -6 6 10 12 12 12 11 10 1 1 3 4 7 9 13 13 13 13 12 12 11
-4 -2 -1 -0 0 -7 -11 -11 -10 -3 3 10 11 10 9 12 12 12 12 4 2 2 4 10 12 13 13 13 13 12 12 11
-5 -3 -1 0 1 1 0 -6 -5 -3 -1 3 8 10 11 11 12 13 13 12 6 5 5 13 13 12 13 13 13 13 12 12
-3 -1 0 1 1 2 2 0 -5 -3 -1 -1 6 10 11 12 12 12 12 11 11 8 7 12 7 12 13 12 11 12 13 12
-0 2 2 3 4 4 4 3 -0 -2 2 0 3 9 11 11 12 10 12 12 10 9 7 8 9 5 12 12 12 11 12 12
2 2 2 3 4 6 7 6 6 5 4 7 5 9 11 12 12 12 12 12 12 12 11 10 6 4 5 10 12 11 11 12
1 1 1 1 4 5 7 8 10 9 9 11 11 11 13 13 12 11 12 13 13 13 12 11 9 5 8 5 6 9 8 12
-0 -1 -1 -0 1 1 3 4 6 8 10 11 11 12 12 12 12 13 13 13 13 11 11 12 11 9 5 1 2 3 5 12
-1 -1 -1 -1 -0 -1 -0 2 3 4 6 9 11 12 12 11 10 10 10 5 4 4 3 5 8 10 9 9 7 9 6 12
-1 -2 -2 -2 -2 -0 -1 -1 1 2 2 4 6 9 10 9 8 7 7 6 5 2 6 10 11 12 12 12 12 11 10 12
-1 -2 -2 -1 -2 -1 -0 -1 -1 0 1 2 3 4 7 7 6 4 3 4 2 7 8 9 10 11 11 12 11 12 12 12
-2 -2 -2 -2 -2 -2 -2 -0 -3 -1 -0 -1 -0 1 1 3 4 5 5 5 6 6 7 8 8 9 10 11 11 11 11 12
-2 -3 -4 -2 -2 -3 -3 -1 -1 -4 -0 -2 -1 -1 -1 -0 -1 -2 -1 -1 0 1 2 3 5 8 9 10 10 11 11 11
-4 -4 -5 -6 -3 -3 -3 -3 -1 -3 -3 -2 1 -0 -2 -1 -1 -3 -5 -6 -6 -3 -2 -0 1 4 7 9 9 10 10 11
-5 -5 -6 -7 -7 -4 -3 -2 -2 -5 -5 -4 -4 -3 -3 -3 -2 -3 -2 -6 -6 -4 -4 -3 -2 -1 0 5 9 8 10 10
-6 -6 -6 -7 -7 -7 -4 -3 -2 -3 -5 -5 -5 -4 -4 -4 -4 -3 -3 -3 -3 -3 -4 -5 -5 -4 0 1 2 5 8 9
-7 -7 -7 -8 -8 -8 -6 -5 -4 -5 -5 -5 -5 -5 -5 -4 -4 -4 -4 -4 -3 -2 -3 -3 -3 -2 -1 1 2 2 3 7
-7 -7 -7 -8 -8 -8 -8 -7 -6 -6 -6 -6 -6 -6 -6 -5 -5 -4 -4 -4 -4 -3 -2 -2 -3 -3 -1 -1 0 2 3 4
-8 -8 -8 -8 -8 -8 -8 -8 -8 -8 -8 -8 -7 -6 -6 -6 -6 -6 -5 -4 -4 -4 -4 -3 -2 -2 -2 -1 -1 0 2 4

GFSFLT1_850_dewp_147.txt.gz
Dewpoint
-6 -4 -3 -1 1 2 2 2 2 2 6 11 13 13 13 12 12 12 12 13 8 3 9 13 13 14 13 12 12 12 12 12
-5 -3 -0 3 3 4 5 3 2 2 1 2 9 11 11 12 12 12 12 13 13 10 10 12 13 13 13 13 12 12 12 12
-3 0 1 2 2 3 2 4 5 3 2 -1 0 4 8 10 11 12 13 13 14 11 10 12 12 12 13 13 13 12 13 12
1 1 1 1 2 2 2 0 1 7 4 2 0 0 4 8 10 11 12 13 13 13 13 13 12 12 13 12 13 13 12 12
1 1 1 1 1 2 2 4 5 5 8 6 3 3 2 6 9 10 11 13 13 13 13 13 12 13 13 12 12 12 12 12
0 0 0 0 0 1 0 4 6 7 8 9 10 10 6 2 7 10 12 12 13 13 13 13 13 13 13 12 11 8 6 4
0 -0 -0 -0 -0 -1 -0 1 3 5 6 8 8 9 11 9 7 8 12 12 12 12 12 12 13 13 12 12 9 6 6 5
-1 -1 -0 0 -0 -1 -0 -0 0 2 3 5 7 9 10 12 10 10 12 12 12 12 11 11 13 12 12 10 11 7 7 5
-1 -1 0 -0 -1 -1 -1 -0 -0 0 1 2 5 8 9 11 12 12 12 12 13 13 12 12 12 12 10 7 4 6 6 6
-1 -1 -0 -1 -2 -3 -1 -2 -1 -1 -0 1 2 5 6 7 10 12 12 11 11 12 11 10 8 7 7 7 4 5 7 5
-1 -1 -1 -2 -3 -3 -3 -1 -2 -2 -1 -1 -0 2 2 3 5 8 10 11 11 11 11 9 6 5 4 4 5 4 5 8
-2 -2 -2 -3 -4 -4 -4 -2 -2 -3 -1 -2 -1 1 1 1 2 4 6 7 9 9 9 9 8 10 10 10 9 11 10 11
-3 -3 -3 -5 -7 -6 -4 -3 -3 -3 -3 -1 -3 -1 0 -0 1 2 3 4 4 5 7 7 7 8 8 10 10 10 10 11
-4 -4 -4 -5 -7 -7 -7 -4 -4 -3 -5 -2 -4 -2 -0 -0 -1 0 1 2 3 3 3 2 2 4 7 9 8 9 10 10
-5 -6 -6 -6 -7 -7 -7 -6 -5 -5 -5 -4 -5 -3 -0 1 -0 -1 -1 0 1 1 1 1 1 2 3 4 5 7 9 9
-6 -7 -7 -6 -7 -7 -7 -6 -6 -6 -5 -5 -5 -5 -4 -2 -1 -0 -1 -1 -1 -0 1 0 0 -1 2 -0 -0 1 3 6
-7 -7 -7 -7 -7 -7 -7 -7 -6 -7 -6 -6 -6 -6 -5 -5 -4 -3 -3 -3 -2 -2 -0 -0 -1 1 -0 0 -0 0 -0 1
-8 -7 -8 -7 -7 -7 -7 -7 -7 -6 -7 -7 -6 -6 -6 -6 -5 -5 -4 -4 -3 -4 -3 -3 -1 -0 -1 -1 -1 -2 -1 0
-8 -8 -8 -8 -8 -8 -7 -7 -7 -7 -7 -7 -7 -7 -7 -6 -6 -5 -5 -4 -5 -4 -4 -4 -4 -3 -2 -1 -1 -1 -2 -1

GFSFLT1_850_dewp_153.txt.gz
Dewpoint
-2 -5 -6 -7 -6 -6 -7 -8 -8 -11 -10 -6 0 3 8 7 10 9 8 12 12 12 13 13 12 13 14 13 13 12 11 12
-3 -5 -6 -7 -6 -5 -5 -5 -6 -6 -6 -8 -9 -5 2 5 8 10 7 10 12 12 12 13 12 12 13 14 13 12 12 11
-4 -3 -2 -1 -2 -4 -4 -4 -4 -4 -5 -4 -3 -3 -5 1 6 8 8 12 11 11 12 13 11 12 12 13 12 12 12 11
-4 -2 -1 -1 -1 -3 -4 -3 -3 -3 -3 -4 -5 -3 -2 -4 -2 4 7 9 12 12 11 11 12 12 12 11 11 10 10 10
-2 -2 -3 -3 -4 -4 -4 -4 -3 -3 -3 -3 -2 -2 0 2 2 -1 1 6 9 10 12 11 10 11 11 11 11 10 10 11
-2 -2 -2 -2 -4 -5 -6 -6 -5 -2 -2 -2 -2 -2 -1 1 3 3 0 1 5 8 10 11 11 11 10 9 9 10 10 10
-2 -2 -2 -3 -5 -5 -6 -7 -8 -5 -2 -2 -2 -1 -1 -0 1 3 4 3 -1 4 8 10 11 8 7 8 8 9 10 9
-2 -2 -2 -3 -5 -4 -4 -7 -8 -6 -2 -2 -2 -2 -1 -0 1 2 4 4 5 -0 3 9 11 11 10 10 8 8 9 9
-3 -2 -2 -3 -3 -4 -5 -7 -7 -7 -3 -3 -3 -3 -2 -1 -0 1 2 3 5 6 7 4 10 11 10 9 9 7 8 10
-3 -3 -3 -3 -4 -5 -6 -7 -7 -7 -4 -3 -3 -3 -3 -2 -1 -0 1 2 3 6 7 7 8 10 10 9 8 9 8 8
-3 -4 -4 -4 -6 -6 -6 -7 -7 -7 -5 -4 -4 -4 -4 -4 -2 -1 0 1 2 6 6 9 9 8 9 9 8 8 9 10
-4 -5 -5 -6 -7 -7 -7 -7 -7 -7 -7 -4 -5 -5 -5 -5 -3 -2 -1 0 1 2 5 6 9 10 9 9 9 11 11 10
-5 -6 -7 -7 -7 -7 -7 -7 -7 -7 -7 -6 -5 -6 -6 -5 -4 -3 -2 -1 0 2 3 2 5 6 9 9 8 8 7 7
-6 -7 -7 -7 -7 -7 -7 -7 -7 -7 -7 -7 -6 -6 -6 -6 -5 -4 -3 -2 -1 1 2 1 2 3 5 8 9 8 8 8
-7 -8 -8 -8 -8 -8 -8 -8 -7 -6 -7 -8 -7 -6 -6 -6 -6 -6 -5 -3 -2 -1 -0 0 -0 0 1 4 7 7 8 8
-7 -8 -8 -8 -8 -8 -8 -8 -7 -6 -7 -8 -7 -7 -7 -6 -6 -6 -5 -5 -4 -3 -1 -0 -2 0 -0 1 2 4 6 6
-7 -8 -8 -8 -8 -8 -8 -8 -7 -7 -8 -9 -8 -7 -7 -7 -7 -6 -6 -5 -5 -4 -3 -1 -1 -2 -2 -1 -1 -1 -1 -0
-7 -8 -8 -9 -9 -9 -9 -9 -7 -7 -8 -9 -8 -7 -8 -8 -8 -7 -6 -6 -6 -5 -5 -4 -3 -4 -3 -3 -3 -2 -1 -0
-8 -8 -9 -9 -9 -9 -9 -9 -8 -8 -10 -9 -8 -8 -8 -7 -8 -8 -8 -7 -7 -7 -6 -5 -5 -5 -5 -4 -5 -4 -3 -3